GW4567 Weather Reports


time (UTC)temp
C
wind
direction
speed
KPH
gust
KPH
rain 1hr
cm
rain 24hr
cm
rain mn
cm
humidity
%
barometer
mb
20260507231559 16 44 19.3 24.1 0.00 0.00 0.00 39 1011.7
20260507231057 15 29 22.5 25.7 0.00 0.00 0.00 39 1011.4
20260507230553 15 31 14.5 17.7 0.00 0.00 0.00 40 1011.6
20260507230050 16 323 9.7 12.9 0.00 0.00 0.00 38 1011.6
20260507225544 16 26 12.9 16.1 0.00 0.00 0.00 39 1011.3
20260507225041 16 11 19.3 25.7 0.00 0.00 0.00 37 1011.3
20260507224537 16 8 16.1 20.9 0.00 0.00 0.00 37 1011.3
20260507224034 16 38 20.9 25.7 0.00 0.00 0.00 38 1011.1
20260507223530 16 48 20.9 22.5 0.00 0.00 0.00 38 1011.2
20260507223027 16 326 22.5 24.1 0.00 0.00 0.00 38 1011.1
20260507222524 16 46 17.7 22.5 0.00 0.00 0.00 39 1010.9
20260507222020 16 7 17.7 22.5 0.00 0.00 0.00 37 1010.7
20260507221517 16 17 22.5 25.7 0.00 0.00 0.00 37 1010.7
20260507221014 16 15 17.7 27.4 0.00 0.00 0.00 37 1010.8
20260507220511 16 348 20.9 29.0 0.00 0.00 0.00 36 1010.6
20260507220008 17 32 25.7 29.0 0.00 0.00 0.00 35 1010.7
20260507215504 16 17 25.7 33.8 0.00 0.00 0.00 37 1010.7
20260507215002 17 37 25.7 30.6 0.00 0.00 0.00 36 1010.5
20260507214459 17 26 12.9 24.1 0.00 0.00 0.00 37 1010.7
20260507213955 17 36 17.7 20.9 0.00 0.00 0.00 37 1010.5
20260507213452 17 10 20.9 29.0 0.00 0.00 0.00 36 1010.5
20260507212948 17 30 24.1 29.0 0.00 0.00 0.00 35 1010.2
20260507212444 17 28 22.5 24.1 0.00 0.00 0.00 36 1010.3
20260507211941 17 36 27.4 30.6 0.00 0.00 0.00 36 1010.5
20260507211438 17 37 16.1 25.7 0.00 0.00 0.00 36 1010.3
20260507210935 17 25 14.5 16.1 0.00 0.00 0.00 35 1010.3
20260507210432 18 56 11.3 14.5 0.00 0.00 0.00 33 1010.1
20260507205928 18 345 19.3 25.7 0.00 0.00 0.00 35 1010.2
20260507205426 18 16 22.5 25.7 0.00 0.00 0.00 35 1010.3
20260507204922 17 14 17.7 29.0 0.00 0.00 0.00 35 1010.3
20260507204418 18 32 25.7 33.8 0.00 0.00 0.00 36 1010.3
20260507203916 18 37 25.7 35.4 0.00 0.00 0.00 35 1010.3
20260507203414 18 326 17.7 25.7 0.00 0.00 0.00 36 1010.3
20260507202910 18 323 20.9 33.8 0.00 0.00 0.00 34 1010.4
20260507202406 18 348 20.9 29.0 0.00 0.00 0.00 35 1010.4
20260507201902 18 22 22.5 29.0 0.00 0.00 0.00 35 1010.3
20260507201357 18 18 17.7 22.5 0.00 0.00 0.00 35 1010.4
20260507200854 18 16 24.1 33.8 0.00 0.00 0.00 35 1010.5
20260507200350 18 18 24.1 33.8 0.00 0.00 0.00 36 1010.4
20260507195846 18 32 11.3 17.7 0.00 0.00 0.00 38 1010.4
20260507195344 18 336 17.7 20.9 0.00 0.00 0.00 36 1010.5
20260507194841 18 336 20.9 27.4 0.00 0.00 0.00 36 1010.5
20260507194337 18 34 20.9 30.6 0.00 0.00 0.00 35 1010.6
20260507193834 17 24 20.9 27.4 0.00 0.00 0.00 37 1010.4
20260507193326 17 42 22.5 27.4 0.00 0.00 0.00 38 1010.5
20260507192821 18 36 24.1 29.0 0.00 0.00 0.00 36 1010.6
20260507192318 17 28 22.5 27.4 0.00 0.00 0.00 38 1010.8
20260507191814 18 19 20.9 22.5 0.00 0.00 0.00 38 1010.5
20260507191310 17 350 24.1 29.0 0.00 0.00 0.00 37 1010.5
20260507190807 17 31 19.3 25.7 0.00 0.00 0.00 39 1010.6
20260507190306 18 24 24.1 35.4 0.00 0.00 0.00 37 1010.6
20260507185804 18 48 20.9 27.4 0.00 0.00 0.00 38 1010.7
20260507185300 18 314 17.7 20.9 0.00 0.00 0.00 39 1010.3
20260507184758 18 28 14.5 22.5 0.00 0.00 0.00 38 1010.6
20260507184256 18 12 11.3 17.7 0.00 0.00 0.00 38 1010.6
20260507183752 18 7 6.4 17.7 0.00 0.00 0.00 38 1010.7
20260507183249 19 331 16.1 17.7 0.00 0.00 0.00 39 1010.7
20260507182747 19 351 11.3 20.9 0.00 0.00 0.00 40 1010.5
20260507182242 18 336 8.0 9.7 0.00 0.00 0.00 42 1010.7
20260507181739 18 32 11.3 14.5 0.00 0.00 0.00 43 1010.6
20260507181235 18 293 3.2 12.9 0.00 0.00 0.00 43 1010.8
20260507180732 18 352 16.1 25.7 0.00 0.00 0.00 43 1010.6
20260507180229 18 356 8.0 20.9 0.00 0.00 0.00 41 1011.0
20260507175724 18 17 6.4 20.9 0.00 0.00 0.00 43 1010.8
20260507175221 17 358 12.9 17.7 0.00 0.00 0.00 41 1010.9
20260507174719 18 341 16.1 20.9 0.00 0.00 0.00 42 1010.9
20260507174217 17 13 9.7 14.5 0.00 0.00 0.00 44 1011.0
20260507173715 18 321 8.0 11.3 0.00 0.00 0.00 44 1011.3
20260507173211 17 299 4.8 4.8 0.00 0.00 0.00 43 1011.4
20260507172708 17 326 4.8 6.4 0.00 0.00 0.00 45 1011.4
20260507172204 17 322 14.5 17.7 0.00 0.00 0.00 46 1011.6
20260507171704 16 346 11.3 22.5 0.00 0.00 0.00 46 1011.7
20260507171202 16 28 14.5 27.4 0.00 0.00 0.00 45 1011.7
20260507170659 16 326 11.3 16.1 0.00 0.00 0.00 46 1011.9
20260507170156 17 38 6.4 12.9 0.00 0.00 0.00 46 1012.0
20260507165651 16 8 1.6 4.8 0.00 0.00 0.00 48 1011.9
20260507165148 16 333 9.7 14.5 0.00 0.00 0.00 48 1012.2
20260507164644 16 51 3.2 20.9 0.00 0.00 0.00 48 1012.2
20260507164141 15 73 14.5 17.7 0.00 0.00 0.00 49 1012.4
20260507163633 16 356 11.3 14.5 0.00 0.00 0.00 49 1012.5
20260507163131 16 60 8.0 9.7 0.00 0.00 0.00 48 1012.4
20260507162626 16 12 1.6 1.6 0.00 0.00 0.00 49 1012.2
20260507162123 16 93 3.2 4.8 0.00 0.00 0.00 48 1012.4
20260507161619 16 324 3.2 6.4 0.00 0.00 0.00 49 1012.5
20260507161116 16 183 3.2 11.3 0.00 0.00 0.00 48 1012.7
20260507160612 16 338 8.0 9.7 0.00 0.00 0.00 49 1012.6
20260507160108 15 200 3.2 3.2 0.00 0.00 0.00 48 1012.7
20260507155603 15 342 3.2 4.8 0.00 0.00 0.00 51 1012.6
20260507155100 15 225 1.6 4.8 0.00 0.00 0.00 51 1012.8
20260507154558 15 210 4.8 4.8 0.00 0.00 0.00 50 1013.0
20260507154055 15 249 3.2 6.4 0.00 0.00 0.00 53 1013.0
20260507153551 15 241 6.4 11.3 0.00 0.00 0.00 52 1013.1
20260507153047 15 308 3.2 4.8 0.00 0.00 0.00 52 1013.3
20260507152543 15 184 3.2 6.4 0.00 0.00 0.00 51 1013.2
20260507152040 15 187 0.0 11.3 0.00 0.00 0.00 52 1013.3
20260507151536 16 81 4.8 4.8 0.00 0.00 0.00 54 1013.3
20260507151033 16 107 1.6 3.2 0.00 0.00 0.00 52 1013.4
20260507150530 14 272 0.0 0.0 0.00 0.00 0.00 56 1013.4
20260507150027 14 46 3.2 9.7 0.00 0.00 0.00 57 1013.6
20260507145522 15 75 6.4 11.3 0.00 0.00 0.00 57 1013.8
20260507145021 15 48 3.2 9.7 0.00 0.00 0.00 57 1013.8
20260507144517 14 109 3.2 4.8 0.00 0.00 0.00 58 1013.8
20260507144014 13 280 0.0 1.6 0.00 0.00 0.00 60 1013.8
20260507143511 13 116 0.0 1.6 0.00 0.00 0.00 60 1013.9
20260507143008 13 62 4.8 4.8 0.00 0.00 0.00 63 1014.0
20260507142503 12 80 6.4 6.4 0.00 0.00 0.00 63 1014.2
20260507142000 12 62 6.4 6.4 0.00 0.00 0.00 62 1014.3
20260507141456 13 26 4.8 9.7 0.00 0.00 0.00 63 1014.3
20260507140953 12 303 3.2 3.2 0.00 0.00 0.00 63 1014.2
20260507140450 12 259 3.2 6.4 0.00 0.00 0.00 63 1014.6
20260507135947 12 87 8.0 9.7 0.00 0.00 0.00 64 1014.7
20260507135444 12 104 6.4 9.7 0.00 0.00 0.00 68 1014.7
20260507134941 12 150 1.6 9.7 0.00 0.00 0.00 69 1014.7
20260507134438 11 54 3.2 4.8 0.00 0.00 0.00 71 1014.9
20260507133934 11 81 4.8 6.4 0.00 0.00 0.00 70 1014.8
20260507133430 11 83 3.2 6.4 0.00 0.00 0.00 71 1014.9
20260507132929 11 85 4.8 9.7 0.00 0.00 0.00 71 1015.0
20260507132424 11 69 6.4 9.7 0.00 0.00 0.00 71 1015.0
20260507131921 11 81 8.0 9.7 0.00 0.00 0.00 71 1015.1
20260507131418 11 82 6.4 9.7 0.00 0.00 0.00 71 1015.0
20260507130915 11 87 8.0 9.7 0.00 0.00 0.00 70 1014.9
20260507130412 11 81 8.0 11.3 0.00 0.00 0.00 70 1015.1
20260507125911 11 82 8.0 9.7 0.00 0.00 0.00 71 1015.3
20260507125408 10 82 8.0 14.5 0.00 0.00 0.00 71 1015.1
20260507124906 10 90 9.7 12.9 0.00 0.00 0.00 72 1015.0
20260507124401 10 81 6.4 11.3 0.00 0.00 0.00 72 1015.2
20260507123900 10 88 8.0 11.3 0.00 0.00 0.00 73 1015.0
20260507123357 10 62 6.4 12.9 0.00 0.00 0.00 73 1015.0
20260507122853 10 59 9.7 11.3 0.00 0.00 0.00 73 1015.3
20260507122349 10 39 6.4 6.4 0.00 0.00 0.00 77 1015.2
20260507121845 10 11 3.2 4.8 0.00 0.00 0.00 78 1015.0
20260507121340 10 21 1.6 3.2 0.00 0.00 0.00 78 1015.0
20260507120837 10 34 0.0 0.0 0.00 0.00 0.00 78 1015.0
20260507120334 10 324 3.2 4.8 0.00 0.00 0.00 79 1015.0
20260507115830 10 237 0.0 0.0 0.00 0.00 0.00 79 1015.0
20260507115326 10 118 0.0 0.0 0.00 0.00 0.00 80 1014.8
20260507114822 10 164 0.0 1.6 0.00 0.00 0.00 80 1014.9
20260507114319 10 178 0.0 1.6 0.00 0.00 0.00 81 1014.9
20260507113817 10 231 0.0 0.0 0.00 0.00 0.00 82 1014.7
20260507113313 10 191 0.0 0.0 0.00 0.00 0.00 82 1014.7
20260507112811 10 184 0.0 0.0 0.00 0.00 0.00 82 1014.4
20260507112308 10 137 0.0 0.0 0.00 0.00 0.00 82 1014.4
20260507111806 10 171 0.0 1.6 0.00 0.00 0.00 82 1014.3
20260507111302 10 130 0.0 3.2 0.00 0.00 0.00 82 1014.3
20260507110758 10 163 4.8 4.8 0.00 0.00 0.00 82 1014.4
20260507110255 10 123 6.4 9.7 0.00 0.00 0.00 82 1014.2
20260507105752 10 95 6.4 12.9 0.00 0.00 0.00 82 1014.4
20260507105247 10 139 4.8 4.8 0.00 0.00 0.00 82 1014.1
20260507104745 10 160 0.0 3.2 0.00 0.00 0.00 82 1014.3
20260507104242 10 176 0.0 1.6 0.00 0.00 0.00 81 1014.4
20260507103737 10 143 1.6 4.8 0.00 0.00 0.00 81 1014.1
20260507103234 10 82 3.2 3.2 0.00 0.00 0.00 82 1014.0
20260507102730 10 130 3.2 3.2 0.00 0.00 0.00 82 1014.0
20260507102227 10 192 0.0 0.0 0.00 0.00 0.00 82 1013.9
20260507101723 10 256 0.0 0.0 0.00 0.00 0.00 82 1014.0
20260507101218 10 246 0.0 0.0 0.00 0.00 0.00 82 1013.8
20260507100716 10 175 0.0 0.0 0.00 0.00 0.00 81 1013.5
20260507100214 10 175 0.0 0.0 0.00 0.00 0.00 81 1013.5
20260507095712 10 270 0.0 0.0 0.00 0.00 0.00 80 1013.6
20260507095208 10 193 0.0 0.0 0.00 0.00 0.00 80 1013.4
20260507094705 10 193 0.0 1.6 0.00 0.00 0.00 80 1013.4
20260507094202 11 193 0.0 1.6 0.00 0.00 0.00 79 1013.6
20260507093659 11 193 0.0 0.0 0.00 0.00 0.00 78 1013.6
20260507093158 11 193 0.0 0.0 0.00 0.00 0.00 78 1013.4
20260507092654 11 193 0.0 0.0 0.00 0.00 0.00 78 1013.6
20260507092151 11 204 0.0 1.6 0.00 0.00 0.00 78 1013.5
20260507091647 11 204 0.0 0.0 0.00 0.00 0.00 79 1013.9
20260507091144 11 214 1.6 1.6 0.00 0.00 0.00 79 1013.7
20260507090639 11 254 0.0 1.6 0.00 0.00 0.00 78 1013.5
20260507090137 11 275 1.6 3.2 0.00 0.00 0.00 78 1013.3
20260507085633 11 257 0.0 1.6 0.00 0.00 0.00 78 1013.5
20260507085130 11 325 0.0 0.0 0.00 0.00 0.00 77 1013.4
20260507084627 11 325 0.0 0.0 0.00 0.00 0.00 75 1013.5
20260507084124 11 271 0.0 1.6 0.00 0.00 0.00 76 1013.5
20260507083620 11 311 1.6 3.2 0.00 0.00 0.00 77 1013.8
20260507083118 11 271 3.2 4.8 0.00 0.00 0.00 77 1013.8
20260507082613 11 274 0.0 1.6 0.00 0.00 0.00 77 1014.0
20260507082110 11 272 1.6 3.2 0.00 0.00 0.00 77 1013.7
20260507081606 11 267 1.6 1.6 0.00 0.00 0.00 77 1013.8
20260507081103 11 228 0.0 0.0 0.00 0.00 0.00 77 1013.8
20260507080559 11 228 0.0 1.6 0.00 0.00 0.00 77 1013.6
20260507080056 11 228 0.0 1.6 0.00 0.00 0.00 77 1013.6
20260507075551 11 275 0.0 1.6 0.00 0.00 0.00 76 1013.8
20260507075047 11 231 3.2 3.2 0.00 0.00 0.00 76 1013.6
20260507074544 11 261 0.0 0.0 0.00 0.00 0.00 75 1013.6
20260507074043 11 295 1.6 1.6 0.00 0.00 0.00 75 1013.5
20260507073538 11 277 0.0 1.6 0.00 0.00 0.00 75 1013.6
20260507073035 11 13 1.6 3.2 0.00 0.00 0.00 74 1013.3
20260507072533 11 284 0.0 1.6 0.00 0.00 0.00 73 1013.3
20260507072030 11 299 1.6 1.6 0.00 0.00 0.00 72 1013.3
20260507071527 11 277 1.6 1.6 0.00 0.00 0.00 72 1013.3
20260507071024 11 319 1.6 3.2 0.00 0.00 0.00 71 1013.3
20260507070521 11 299 3.2 3.2 0.00 0.00 0.00 72 1013.4
20260507070018 11 304 3.2 3.2 0.00 0.00 0.00 72 1013.5
20260507065514 11 226 0.0 0.0 0.00 0.00 0.00 72 1013.4
20260507065011 11 251 1.6 1.6 0.00 0.00 0.00 72 1013.3
20260507064509 11 255 1.6 1.6 0.00 0.00 0.00 72 1013.2
20260507064008 12 40 1.6 1.6 0.00 0.00 0.00 72 1013.2
20260507063504 12 31 8.0 12.9 0.00 0.00 0.00 72 1013.5
20260507063001 11 357 12.9 12.9 0.00 0.00 0.00 75 1013.5
20260507062458 11 21 6.4 9.7 0.00 0.00 0.00 77 1013.4
20260507061955 11 19 4.8 9.7 0.00 0.00 0.00 81 1013.8
20260507061453 12 212 3.2 4.8 0.00 0.00 0.00 82 1013.8
20260507060951 11 126 0.0 3.2 0.00 0.00 0.00 81 1013.8
20260507060448 11 163 4.8 6.4 0.00 0.00 0.00 82 1013.8
20260507055945 11 313 6.4 11.3 0.00 0.00 0.00 83 1013.9
20260507055440 11 187 3.2 6.4 0.00 0.00 0.00 86 1014.1
20260507054937 11 211 6.4 9.7 0.00 0.00 0.00 86 1013.8
20260507054433 11 224 9.7 11.3 0.00 0.00 0.00 86 1014.1
20260507053930 11 214 6.4 6.4 0.00 0.00 0.00 85 1014.2
20260507053428 11 222 3.2 3.2 0.00 0.00 0.00 85 1013.9
20260507052926 11 119 1.6 3.2 0.00 0.00 0.00 85 1013.9
20260507052423 11 201 1.6 6.4 0.00 0.00 0.00 87 1013.9
20260507051920 11 232 6.4 6.4 0.00 0.00 0.00 87 1014.0
20260507051418 11 182 3.2 4.8 0.00 0.00 0.00 87 1013.7
20260507050915 11 197 9.7 12.9 0.00 0.00 0.00 87 1013.7
20260507050411 11 133 4.8 9.7 0.00 0.00 0.00 87 1013.6
20260507045908 12 208 6.4 11.3 0.00 0.00 0.00 86 1013.7
20260507045405 12 220 3.2 4.8 0.00 0.00 0.00 86 1013.7
20260507044902 12 204 6.4 9.7 0.00 0.00 0.00 85 1013.4
20260507044358 12 196 3.2 6.4 0.00 0.00 0.00 85 1013.5
20260507043854 12 136 4.8 6.4 0.00 0.00 0.00 85 1013.3
20260507043346 12 123 4.8 9.7 0.00 0.00 0.00 85 1013.1
20260507042842 12 194 3.2 9.7 0.00 0.00 0.00 84 1013.1
20260507042338 12 116 4.8 9.7 0.00 0.00 0.00 84 1013.2
20260507041835 13 106 3.2 4.8 0.00 0.00 0.00 83 1013.3
20260507041331 13 218 4.8 4.8 0.00 0.00 0.00 83 1013.1
20260507040828 13 217 0.0 1.6 0.00 0.00 0.00 82 1013.3
20260507040324 13 113 0.0 1.6 0.00 0.00 0.00 82 1013.3
20260507035820 13 180 0.0 1.6 0.00 0.13 0.13 82 1013.5
20260507035315 13 123 0.0 1.6 0.00 0.13 0.13 81 1013.1
20260507034814 13 138 4.8 4.8 0.00 0.13 0.13 81 1012.4
20260507034310 13 123 1.6 4.8 0.00 0.13 0.13 81 1012.7
20260507033808 13 183 3.2 3.2 0.00 0.13 0.13 81 1013.1
20260507033306 13 142 1.6 4.8 0.00 0.13 0.13 80 1013.6
20260507032802 13 128 3.2 6.4 0.00 0.13 0.13 80 1013.7
20260507032258 13 191 4.8 11.3 0.00 0.13 0.13 80 1013.1
20260507031755 13 211 4.8 9.7 0.00 0.13 0.13 81 1012.7
20260507031252 13 219 6.4 6.4 0.00 0.13 0.13 80 1012.9
20260507030749 13 224 3.2 4.8 0.00 0.13 0.13 80 1012.9
20260507030246 14 230 1.6 3.2 0.00 0.13 0.13 80 1013.3
20260507025743 14 261 3.2 3.2 0.00 0.13 0.13 80 1013.4
20260507025240 14 176 1.6 3.2 0.00 0.13 0.13 79 1012.9
20260507024739 14 179 1.6 3.2 0.00 0.13 0.13 79 1013.1
20260507024235 14 193 3.2 3.2 0.00 0.13 0.13 79 1013.3
20260507023731 14 108 4.8 6.4 0.00 0.13 0.13 79 1013.5
20260507023228 14 160 1.6 3.2 0.00 0.13 0.13 79 1013.0
20260507022725 14 168 3.2 4.8 0.00 0.13 0.13 79 1012.7
20260507022221 14 196 3.2 4.8 0.00 0.13 0.13 78 1012.8
20260507021713 14 149 1.6 3.2 0.00 0.13 0.13 78 1012.9
20260507021208 15 187 3.2 6.4 0.00 0.13 0.13 78 1012.7
20260507020707 15 189 1.6 3.2 0.00 0.13 0.13 78 1012.6
20260507020202 15 221 4.8 4.8 0.00 0.13 0.13 78 1012.6
20260507015700 15 207 6.4 6.4 0.00 0.13 0.13 78 1012.4
20260507015158 15 125 3.2 3.2 0.00 0.13 0.13 78 1012.7
20260507014654 15 94 6.4 6.4 0.00 0.13 0.13 76 1012.3
20260507014150 15 71 3.2 4.8 0.00 0.13 0.13 75 1012.1
20260507013647 15 127 1.6 1.6 0.00 0.13 0.13 75 1012.1
20260507013144 15 125 4.8 6.4 0.00 0.13 0.13 75 1012.0
20260507012642 16 215 0.0 1.6 0.00 0.13 0.13 75 1012.2
20260507012137 16 136 3.2 4.8 0.00 0.13 0.13 75 1012.2
20260507011636 16 219 0.0 0.0 0.00 0.13 0.13 75 1012.3
20260507011131 16 268 0.0 1.6 0.00 0.13 0.13 75 1012.2
20260507010626 16 34 1.6 9.7 0.00 0.13 0.13 74 1012.2
20260507010122 16 114 8.0 9.7 0.00 0.13 0.13 75 1012.1
20260507005620 16 84 3.2 9.7 0.00 0.13 0.13 75 1011.9
20260507005116 16 195 0.0 3.2 0.00 0.13 0.13 76 1011.8
20260507004613 16 225 4.8 4.8 0.00 0.13 0.13 77 1011.8
20260507004110 16 247 4.8 4.8 0.00 0.13 0.13 77 1012.0
20260507003606 16 333 3.2 3.2 0.00 0.13 0.13 77 1011.9
20260507003101 16 291 1.6 3.2 0.00 0.13 0.13 77 1011.6
20260507002558 16 6 3.2 4.8 0.00 0.13 0.13 76 1011.9
20260507002054 16 357 3.2 6.4 0.00 0.13 0.13 76 1012.4
20260507001551 16 22 4.8 4.8 0.00 0.13 0.13 74 1012.3
20260507001048 17 357 4.8 4.8 0.00 0.13 0.13 73 1012.1
20260507000544 17 333 1.6 3.2 0.00 0.13 0.13 71 1012.0
20260507000040 17 301 1.6 3.2 0.00 0.13 0.13 71 1011.9
20260506235537 17 270 3.2 3.2 0.00 0.13 0.13 71 1011.8
20260506235033 17 206 3.2 3.2 0.00 0.13 0.13 72 1012.0
20260506234531 17 330 1.6 4.8 0.00 0.13 0.13 72 1011.9
20260506234027 17 308 3.2 6.4 0.00 0.13 0.13 71 1011.9
20260506233524 17 337 4.8 9.7 0.00 0.13 0.13 71 1011.9
20260506233016 17 262 3.2 4.8 0.00 0.13 0.13 70 1011.7
20260506232512 17 291 4.8 6.4 0.00 0.13 0.13 70 1011.6
20260506232007 17 304 1.6 4.8 0.00 0.13 0.13 69 1011.7